• In Deutschland
  • Länderverzeichnis
  • Für 7 Tage
  • Wassertemperatur
  • Satellitenkarten
  • Wetterkarte
  • Widgets
  • user-avatar
    Anmelden

    Stündliche Wetter Djambala

    Heute, 25 September, Montag

    Zeit Temperatur Niederschläge Wind Luftdruck Luftfeuchtigkeit
    00:00 +24°C° 0 mm 2 m/S 695 mmHg 83%
    01:00 +23°C° 0 mm 2 m/S 695 mmHg 87%
    02:00 +23°C° 0 mm 2 m/S 695 mmHg 88%
    03:00 +21°C° 0 mm 2 m/S 695 mmHg 90%
    04:00 +21°C° 0 mm 2 m/S 694 mmHg 92%
    05:00 +21°C° 0 mm 2 m/S 695 mmHg 91%
    06:00 +23°C° 0 mm 2 m/S 695 mmHg 90%
    07:00 +23°C° 0 mm 2 m/S 695 mmHg 88%
    08:00 +25°C° 0 mm 2 m/S 696 mmHg 80%
    09:00 +26°C° 0 mm 2 m/S 696 mmHg 72%
    10:00 +28°C° 0 mm 3 m/S 696 mmHg 64%
    11:00 +29°C° 0 mm 2 m/S 696 mmHg 58%
    12:00 +31°C° 0 mm 2 m/S 695 mmHg 52%
    13:00 +31°C° 0 mm 2 m/S 695 mmHg 51%
    14:00 +31°C° 0 mm 2 m/S 695 mmHg 51%
    15:00 +31°C° 0 mm 1 m/S 694 mmHg 50%
    16:00 +31°C° 0 mm 1 m/S 694 mmHg 50%
    17:00 +30°C° 0,1 mm 1 m/S 694 mmHg 54%
    18:00 +29°C° 0,1 mm 1 m/S 694 mmHg 59%
    19:00 +27°C° 0,1 mm 1 m/S 694 mmHg 64%
    20:00 +27°C° 0,3 mm 2 m/S 694 mmHg 69%
    21:00 +26°C° 0,3 mm 2 m/S 694 mmHg 74%
    22:00 +25°C° 0,3 mm 2 m/S 695 mmHg 79%
    23:00 +24°C° 0,3 mm 2 m/S 695 mmHg 80%

    Morgen, 26 September, Dienstag

    Zeit Temperatur Niederschläge Wind Luftdruck Luftfeuchtigkeit
    00:00 +24°C° 0,3 mm 2 m/S 694 mmHg 82%
    01:00 +24°C° 0,3 mm 2 m/S 694 mmHg 84%
    02:00 +23°C° 0 mm 2 m/S 694 mmHg 85%
    03:00 +23°C° 0 mm 2 m/S 694 mmHg 87%
    04:00 +21°C° 0 mm 2 m/S 694 mmHg 89%
    05:00 +23°C° 0 mm 2 m/S 694 mmHg 88%
    06:00 +23°C° 0 mm 2 m/S 694 mmHg 87%
    07:00 +22°C° 0 mm 3 m/S 694 mmHg 86%
    08:00 +25°C° 0 mm 3 m/S 695 mmHg 77%
    09:00 +27°C° 0 mm 3 m/S 695 mmHg 67%
    10:00 +29°C° 0 mm 3 m/S 696 mmHg 57%
    11:00 +30°C° 0,1 mm 2 m/S 695 mmHg 53%
    12:00 +32°C° 0,1 mm 2 m/S 695 mmHg 49%
    13:00 +34°C° 0,1 mm 2 m/S 694 mmHg 45%
    14:00 +32°C° 0 mm 2 m/S 693 mmHg 46%
    15:00 +32°C° 0 mm 1 m/S 693 mmHg 47%
    16:00 +31°C° 0 mm 1 m/S 693 mmHg 48%
    17:00 +30°C° 0,3 mm 1 m/S 693 mmHg 53%
    18:00 +29°C° 0,3 mm 2 m/S 693 mmHg 59%
    19:00 +27°C° 0,3 mm 2 m/S 693 mmHg 65%
    20:00 +27°C° 0,2 mm 2 m/S 694 mmHg 69%
    21:00 +26°C° 0,2 mm 2 m/S 694 mmHg 73%
    22:00 +25°C° 0,2 mm 2 m/S 695 mmHg 77%
    23:00 +25°C° 0,2 mm 2 m/S 694 mmHg 79%

    übermorgen, 27 September, Mittwoch

    Zeit Temperatur Niederschläge Wind Luftdruck Luftfeuchtigkeit
    00:00 +24°C° 0,2 mm 2 m/S 694 mmHg 81%
    01:00 +24°C° 0,2 mm 2 m/S 694 mmHg 83%
    02:00 +23°C° 0 mm 2 m/S 694 mmHg 85%
    03:00 +23°C° 0 mm 2 m/S 694 mmHg 88%
    04:00 +23°C° 0 mm 2 m/S 694 mmHg 90%
    05:00 +23°C° 0 mm 2 m/S 694 mmHg 89%
    06:00 +23°C° 0 mm 2 m/S 695 mmHg 88%
    07:00 +23°C° 0 mm 2 m/S 695 mmHg 86%
    08:00 +24°C° 0 mm 2 m/S 696 mmHg 82%
    09:00 +25°C° 0 mm 2 m/S 696 mmHg 77%
    10:00 +26°C° 0 mm 2 m/S 697 mmHg 72%
    11:00 +27°C° 0 mm 2 m/S 696 mmHg 67%
    12:00 +28°C° 0 mm 2 m/S 695 mmHg 62%
    13:00 +30°C° 0 mm 2 m/S 694 mmHg 56%
    14:00 +30°C° 0,1 mm 2 m/S 694 mmHg 56%
    15:00 +30°C° 0,1 mm 2 m/S 693 mmHg 55%
    16:00 +30°C° 0,1 mm 1 m/S 693 mmHg 54%
    17:00 +29°C° 0,3 mm 1 m/S 693 mmHg 59%
    18:00 +28°C° 0,3 mm 1 m/S 693 mmHg 65%
    19:00 +26°C° 0,3 mm 1 m/S 694 mmHg 71%
    20:00 +26°C° 0,5 mm 1 m/S 694 mmHg 73%
    21:00 +25°C° 0,5 mm 1 m/S 695 mmHg 75%
    22:00 +25°C° 0,5 mm 1 m/S 695 mmHg 78%
    23:00 +25°C° 0,7 mm 1 m/S 695 mmHg 79%

    28 September, Donnerstag

    Zeit Temperatur Niederschläge Wind Luftdruck Luftfeuchtigkeit
    00:00 +24°C° 0,7 mm 1 m/S 695 mmHg 81%
    01:00 +24°C° 0,7 mm 1 m/S 694 mmHg 83%
    02:00 +24°C° 0,1 mm 1 m/S 694 mmHg 84%
    03:00 +24°C° 0,1 mm 2 m/S 694 mmHg 85%
    04:00 +23°C° 0,1 mm 2 m/S 694 mmHg 86%
    05:00 +23°C° 0 mm 2 m/S 695 mmHg 86%
    06:00 +23°C° 0 mm 2 m/S 695 mmHg 86%
    07:00 +24°C° 0 mm 2 m/S 696 mmHg 86%
    08:00 +25°C° 0,1 mm 2 m/S 696 mmHg 80%
    09:00 +26°C° 0,1 mm 2 m/S 697 mmHg 74%
    10:00 +28°C° 0,1 mm 2 m/S 697 mmHg 68%
    11:00 +28°C° 0,8 mm 2 m/S 697 mmHg 64%
    12:00 +29°C° 0,8 mm 2 m/S 696 mmHg 61%
    13:00 +30°C° 0,8 mm 1 m/S 695 mmHg 57%
    14:00 +30°C° 0,5 mm 1 m/S 695 mmHg 57%
    15:00 +30°C° 0,5 mm 1 m/S 694 mmHg 57%
    16:00 +28°C° 0,5 mm 0 m/S 694 mmHg 58%
    17:00 +28°C° 0,1 mm 1 m/S 694 mmHg 63%
    18:00 +27°C° 0,1 mm 1 m/S 694 mmHg 68%
    19:00 +26°C° 0,1 mm 1 m/S 694 mmHg 73%
    20:00 +25°C° 0 mm 1 m/S 695 mmHg 76%
    21:00 +25°C° 0 mm 2 m/S 695 mmHg 79%
    22:00 +24°C° 0 mm 2 m/S 695 mmHg 83%
    23:00 +24°C° 0,3 mm 2 m/S 695 mmHg 85%

    29 September, Freitag

    Zeit Temperatur Niederschläge Wind Luftdruck Luftfeuchtigkeit
    00:00 +24°C° 0,3 mm 2 m/S 694 mmHg 87%
    01:00 +23°C° 0,3 mm 1 m/S 694 mmHg 90%
    02:00 +23°C° 0,3 mm 2 m/S 694 mmHg 90%
    03:00 +23°C° 0,3 mm 2 m/S 694 mmHg 91%
    04:00 +21°C° 0,3 mm 2 m/S 694 mmHg 92%
    05:00 +22°C° 0,3 mm 3 m/S 695 mmHg 91%
    06:00 +22°C° 0,3 mm 3 m/S 695 mmHg 89%
    07:00 +22°C° 0,3 mm 3 m/S 696 mmHg 88%
    08:00 +24°C° 0,1 mm 3 m/S 696 mmHg 83%
    09:00 +25°C° 0,1 mm 3 m/S 697 mmHg 78%
    10:00 +26°C° 0,1 mm 3 m/S 697 mmHg 73%
    11:00 +28°C° 0,6 mm 3 m/S 696 mmHg 67%
    12:00 +29°C° 0,6 mm 3 m/S 695 mmHg 62%
    13:00 +30°C° 0,6 mm 3 m/S 695 mmHg 57%
    14:00 +30°C° 0,4 mm 3 m/S 694 mmHg 57%
    15:00 +30°C° 0,4 mm 2 m/S 694 mmHg 57%
    16:00 +30°C° 0,4 mm 2 m/S 694 mmHg 57%
    17:00 +28°C° 2,5 mm 2 m/S 694 mmHg 66%
    18:00 +26°C° 2,5 mm 1 m/S 694 mmHg 75%
    19:00 +25°C° 2,5 mm 1 m/S 695 mmHg 84%
    20:00 +24°C° 0,3 mm 1 m/S 695 mmHg 85%
    21:00 +24°C° 0,3 mm 1 m/S 695 mmHg 86%
    22:00 +24°C° 0,3 mm 1 m/S 695 mmHg 86%
    23:00 +23°C° 0 mm 1 m/S 694 mmHg 87%

    30 September, Samstag

    Zeit Temperatur Niederschläge Wind Luftdruck Luftfeuchtigkeit
    00:00 +23°C° 0 mm 1 m/S 694 mmHg 87%
    01:00 +23°C° 0 mm 1 m/S 694 mmHg 88%
    02:00 +23°C° 0 mm 1 m/S 694 mmHg 88%
    03:00 +23°C° 0 mm 1 m/S 694 mmHg 89%
    04:00 +23°C° 0 mm 1 m/S 694 mmHg 89%
    05:00 +23°C° 0 mm 1 m/S 694 mmHg 88%
    06:00 +23°C° 0 mm 2 m/S 695 mmHg 88%
    07:00 +23°C° 0 mm 2 m/S 695 mmHg 87%
    08:00 +24°C° 0,4 mm 2 m/S 696 mmHg 82%
    09:00 +26°C° 0,4 mm 2 m/S 696 mmHg 76%
    10:00 +27°C° 0,4 mm 2 m/S 696 mmHg 71%
    11:00 +28°C° 0,6 mm 2 m/S 696 mmHg 65%
    12:00 +30°C° 0,6 mm 2 m/S 695 mmHg 59%
    13:00 +31°C° 0,6 mm 1 m/S 695 mmHg 53%
    14:00 +31°C° 0,1 mm 1 m/S 694 mmHg 53%
    15:00 +31°C° 0,1 mm 1 m/S 694 mmHg 53%
    16:00 +30°C° 0,1 mm 1 m/S 694 mmHg 53%
    17:00 +29°C° 0,3 mm 1 m/S 694 mmHg 60%
    18:00 +27°C° 0,3 mm 2 m/S 694 mmHg 67%
    19:00 +26°C° 0,3 mm 2 m/S 694 mmHg 74%
    20:00 +25°C° 0,1 mm 2 m/S 694 mmHg 77%
    21:00 +25°C° 0,1 mm 2 m/S 694 mmHg 80%
    22:00 +24°C° 0,1 mm 2 m/S 694 mmHg 83%
    23:00 +24°C° 0 mm 1 m/S 694 mmHg 85%
    Mehr zeigen